Location: Newark
(3.0500°N, 36.0167°E)
Time: 10:35:41
(UTC+00:00)

Transit 2A - Visible Passes

Search period start: 21 August 2019 00:00
Search period end: 31 August 2019 00:00
Orbit: 597 x 962 km, 66.7° (Epoch: 20 August)

Date Brightness Start Highest point End Pass type
(mag) Time Alt. Az. Time Alt. Az. Time Alt. Az.
21 Aug 7.3 17:40:38 10° NNW 17:42:31 25° NNW 17:42:31 25° NNW visible
22 Aug 6.0 17:06:45 10° N 17:10:12 42° NE 17:10:12 42° NE visible
23 Aug 6.6 16:33:16 10° NNE 16:36:50 25° ENE 16:38:00 22° E visible
23 Aug 8.6 18:18:03 10° W 18:18:33 11° W 18:18:33 11° W visible
24 Aug 7.6 17:42:15 10° WNW 17:45:35 22° WSW 17:46:32 20° SW visible
25 Aug 6.7 17:07:29 10° NW 17:11:32 40° WSW 17:14:40 16° S visible
26 Aug 5.6 16:33:10 10° NNW 16:37:28 79° WSW 16:41:49 10° SSE visible
27 Aug 5.6 15:59:13 10° N 16:03:25 53° ENE 16:07:39 10° SSE visible
28 Aug 9.4 02:54:27 10° SE 02:56:44 12° ESE 02:59:00 10° E visible
28 Aug 8.7 17:11:32 10° WSW 17:12:12 10° WSW 17:12:52 10° WSW visible
29 Aug 8.2 16:35:01 10° WNW 16:38:07 19° WSW 16:41:16 10° SSW visible
30 Aug 7.3 16:00:07 10° NW 16:04:03 35° WSW 16:08:03 10° S visible
